Lid_Strength_Index
4 4 4 5 5 6 7 11 9 5 6 10 12 13 11 9 8 7 8 9 10 11 11 12 12 11 9 8 9 12 12 14 15 13 11 11 12 14 14 16 16 15 15 15
5 4 4 5 5 6 7 12 11 6 7 13 13 11 9 8 8 9 9 10 10 10 11 13 11 10 8 8 9 11 12 15 16 15 13 12 13 14 14 15 15 15 16 14
5 4 5 5 5 6 8 9 11 9 9 10 12 12 11 10 7 8 8 9 9 11 12 12 12 11 8 8 7 6 8 16 14 14 14 12 12 10 11 12 14 15 15 14
5 4 5 5 5 6 8 9 11 11 12 11 11 12 11 10 10 8 8 10 9 10 13 12 12 10 10 8 6 8 11 14 14 14 12 10 10 10 10 12 12 13 12 13
5 5 5 5 5 6 9 11 11 10 11 11 11 12 12 10 10 9 10 10 9 9 12 12 12 11 12 11 9 10 11 13 14 13 12 10 11 10 10 10 10 11 11 11
5 5 5 5 5 7 10 9 9 10 12 12 13 13 11 9 9 8 8 9 10 10 9 8 8 9 10 10 11 11 11 12 13 15 12 12 14 11 10 10 10 10 13 10
5 5 5 4 5 5 9 9 9 11 13 11 11 10 9 9 9 10 8 8 10 8 6 8 10 10 10 10 10 10 11 12 13 14 14 18 12 9 9 9 9 8 9 8
5 5 4 4 4 4 8 8 9 10 13 10 10 10 9 9 9 9 8 7 6 6 9 11 12 13 12 11 9 11 11 11 14 15 16 13 11 10 9 10 10 8 8 7
5 4 4 4 4 4 7 8 7 8 11 12 8 9 8 11 11 9 8 6 6 7 10 12 14 15 13 13 11 12 12 12 12 15 17 18 12 8 7 9 13 7 7 7
5 5 5 4 4 4 6 7 5 8 9 9 10 10 10 8 9 10 9 8 8 7 11 13 14 14 10 14 14 12 14 14 14 14 15 13 9 8 7 13 13 8 7 7
5 5 4 4 4 3 5 7 6 8 9 9 7 7 8 8 9 11 10 9 9 9 12 13 14 14 13 14 12 13 13 14 15 15 16 16 8 8 11 10 8 7 7 7
6 5 5 4 4 3 4 7 6 6 8 8 6 5 5 5 6 8 10 10 10 9 11 11 11 13 12 13 15 11 14 12 14 13 13 9 8 9 7 7 8 7 7 6
6 5 4 4 3 3 4 8 8 8 8 9 9 8 6 5 5 4 9 9 8 9 7 8 9 13 11 14 14 13 11 10 12 12 10 9 7 7 6 6 7 6 5 5
5 5 4 3 3 3 4 8 8 8 6 8 9 5 5 4 6 5 4 6 6 7 8 8 9 11 9 12 11 12 10 10 11 11 9 8 7 7 6 6 5 5 5 5
5 4 4 3 3 3 4 7 7 6 6 8 8 6 6 6 6 6 5 6 7 7 8 10 10 8 9 9 9 11 9 10 12 12 8 8 8 6 5 6 6 5 5 5
4 4 4 4 3 3 8 9 4 2 3 7 12 9 8 5 6 6 6 7 8 7 7 8 8 7 8 11 13 8 7 6 6 8 6 6 6 5 4 5 5 5 5 5
4 4 4 4 3 7 10 9 5 4 6 9 10 11 7 5 4 5 5 5 7 7 7 9 8 8 8 10 12 8 6 6 6 5 6 8 6 7 5 5 4 4 4 4
4 4 4 3 3 4 7 6 3 4 8 7 10 11 10 6 7 8 6 7 8 8 8 9 9 9 9 12 8 7 7 6 6 5 5 5 5 5 5 4 4 5 5 5
4 4 3 6 8 9 7 1 3 5 7 11 10 11 14 8 9 9 7 7 10 8 9 9 9 10 12 9 9 8 7 7 6 5 5 5 6 6 5 5 5 6 5 5
4 6 7 9 5 0 1 5 5 6 5 7 9 8 10 10 10 8 8 9 10 13 10 8 11 11 8 7 6 8 6 6 6 7 8 7 7 6 6 6 5 5 5 5
8 10 9 7 4 6 5 9 8 8 9 9 9 9 10 7 9 10 9 11 11 13 11 11 12 12 9 6 6 5 5 5 6 5 5 5 5 5 6 5 5 4 4 5
9 9 8 8 8 7 9 10 9 9 10 8 9 8 8 8 6 9 8 11 10 14 9 12 14 10 7 7 6 6 5 5 5 6 5 4 4 4 5 5 5 4 4 4
7 8 10 10 9 11 12 12 11 11 8 7 7 9 7 7 7 9 10 12 13 8 12 13 11 8 7 6 6 6 5 5 5 5 4 4 4 4 4 5 4 4 4 3
8 9 12 11 12 11 10 9 9 8 7 7 9 9 8 7 9 9 12 10 10 14 15 14 10 8 7 6 5 6 6 5 5 5 5 5 5 5 4 4 4 4 4 4
8 8 12 11 9 8 7 6 7 6 6 7 9 8 9 9 10 10 10 12 14 13 13 11 8 7 6 6 6 6 5 6 5 6 5 5 4 5 4 4 3 3 4 4
9 10 11 9 10 10 8 7 8 7 7 7 8 9 10 11 10 12 12 13 14 12 9 7 7 6 6 6 5 5 5 5 5 5 4 4 5 5 4 4 4 3 3 4
9 10 9 9 9 9 9 6 6 5 8 9 8 12 12 10 12 12 10 12 10 8 7 6 6 6 6 5 5 5 5 5 4 4 4 4 4 4 4 5 4 3 3 3